Regional Weather Roundup
Issued by NWS

Home | Current Version | Previous Version | Text Only | Print | Product List | Glossary On
Versions: 1 2 3 4 5 6 7 8 9 10 11 12 13 14 15 16 17 18 19 20 21 22 23 24 25 26 27 28 29 30 31 32 33 34 35 36 37 38 39 40 41 42 43 44 45 46 47 48 49 50
000
ASUS44 KLUB 162310
RWRTX
WEST TEXAS WEATHER ROUNDUP
NATIONAL WEATHER SERVICE LUBBOCK TX
500 PM CST MON JAN 16 2017

NOTE: "FAIR" INDICATES FEW OR NO CLOUDS BELOW 12,000 FEET WITH NO
SIGNIFICANT WEATHER AND/OR OBSTRUCTIONS TO VISIBILITY.

TXZ004-006>008-010-012-014-016-OKZ002-170000-
TEXAS PANHANDLE/OKLAHOMA PANHANDLE

CITY           SKY/WX    TMP DP  RH WIND       PRES   REMARKS
AMARILLO       CLOUDY    40  33  76 NW16      30.03R WCI  31
BORGER         CLOUDY    41  33  73 NW16G23   30.03R
DALHART        CLOUDY    40  34  79 N18       30.03R WCI  31
DUMAS          CLOUDY    38  33  82 N20G26    30.02R WCI  27
GUYMON         CLOUDY    39  34  82 NW17G25   30.01R WCI  30
HEREFORD       PTSUNNY   45  36  71 N16G28    30.04R
$$

TXZ026-029-035-045-048-170000-
SOUTHERN PANHANDLE/SOUTH PLAINS/ROLLING PLAINS

CITY           SKY/WX    TMP DP  RH WIND       PRES   REMARKS
CHILDRESS      CLEAR     52  37  56 NW10      30.02R
SEMINOLE       MOSUNNY   59  37  44 NW5       29.99R
LUBBOCK        MOSUNNY   53  40  61 N12       30.00R
PLAINVIEW      SUNNY     47  35  63 N10       30.00S
SNYDER         SUNNY     59  42  53 CALM      30.01R
$$

TXZ052-054-060>062-072-078-127-140-154-169-170000-
PERMIAN BASIN/CONCHO VALLEY/BIG COUNTRY/EDWARDS PLATEAU

CITY           SKY/WX    TMP DP  RH WIND       PRES   REMARKS
ABILENE        CLEAR     62  44  51 N5        30.00R
BIG SPRING     SUNNY     60  41  49 CALM      30.00S
BROWNWOOD      CLEAR     64  43  45 CALM      29.98S
JUNCTION       PTSUNNY   67  46  47 E5        29.97R
MIDLAND        SUNNY     63  35  35 SW6       29.97R
ODESSA         SUNNY     62  35  36 W6        29.97R
SAN ANGELO     SUNNY     70  36  28 NW5       29.97R
SONORA         MOSUNNY   68  36  30 CALM      30.01S
SWEETWATER     SUNNY     60  42  52 W3        30.03R
WINK           SUNNY     63  35  35 NW7       29.95R
$$

TXZ055-058-074-075-080-082-170000-
FAR WEST/SOUTHWEST MOUNTAINS/TRANS PECOS

CITY           SKY/WX    TMP DP  RH WIND       PRES   REMARKS
ALPINE         SUNNY     61  29  29 CALM      30.04R
DRYDEN           N/A     67  37  33 SE8       29.94R
EL PASO        MOSUNNY   55  34  45 SW8       29.98R
FORT STOCKTON  SUNNY     68  29  23 CALM      29.95S
GUADALUPE PASS SUNNY     51  33  50 SW22      30.00S
MARFA          SUNNY     60  29  30 SE6       30.00
PECOS          SUNNY     64  33  31 CALM      29.95S
$$

TXZ014-016-019-021>030-083-170000
TEXAS TECH WEST TEXAS MESONET/TEXAS PANHANDLE/NORTHERN SOUTH PLAINS

CITY           SKY/WX    TMP DP  RH WIND       PRES   REMARKS
ABERNATHY 5ENE   N/A     50  39  66 N10       30.02R
AMARILLO 9NNE    N/A     40  34  77 NW15      30.03R WCI  32
AMARILLO 7SSE    N/A     41  33  74 NW8       30.04R
AMHERST 1NE      N/A     48  37  65 N13       30.01R
BOOTLEG 11WNW    N/A     43  33  67 N9        30.04R
CANADIAN 6E      N/A     41  34  77 NW14      29.98R
CAPROCK CYN SP   N/A     48  35  60 NW8       30.03R
CHILDRESS 2NNE   N/A     51  35  55 NW13      30.02R
CLARENDON 2WSW   N/A     43  33  70 NW16      30.03R
CLAUDE 12SW      N/A     40  33  74 NW12      30.03R WCI  34
DIMMITT 2NE      N/A     44  36  75 NW10      30.02R
FLOYDADA 2NNE    N/A     49  36  61 NW7       30.01R
FRIONA 2NE       N/A     46  36  67 N14       30.03R
GOODLETT 3W      N/A     53  36  53 NW13      30.01R
HART 3N          N/A     44  36  73 NW12      30.03R
MCLEAN 1E        N/A     42  32  67 W16       30.00R
MEMPHIS 1NE      N/A     47  36  64 NW13      30.03R
MULESHOE 2SSW    N/A     47  36  63 NE7       30.02R
OLTON 6S         N/A     49  35  60 N15       30.00S
PALO DURO SP     N/A     42  33  70 NW10      30.04R
PAMPA 2E         N/A     39  34  81 NW18      30.00R WCI  30
PLAINVIEW 1S     N/A     48  38  67 NW8       30.01R
SILVERTON 7ESE   N/A     46  34  62 NW14      30.02R
TULIA 2ENE       N/A     43  36  76 NW15      30.03R
TURKEY 2WSW      N/A     50  37  60 NW12      30.01S
UMBARGER 3NNE    N/A     41  36  82 NW10      30.03R
$$

TXZ033>036-039>041-045>048-170000
TEXAS TECH WEST TEXAS MESONET/SOUTH PLAINS

CITY           SKY/WX    TMP DP  RH WIND       PRES   REMARKS
AIKEN 3WSW       N/A     47  38  70 N13       30.03R
ANDREWS 2NE      N/A     62  35  37 W3        29.98R
ANTON 6SSW       N/A     51  41  69 N10       30.01R
BROWNFIELD 2S    N/A     58  40  51 NW3       29.98R
DENVR CTY 7WNW   N/A     60  32  35 CALM      29.97R
GAIL 2ESE        N/A     62  40  45 W1        29.98S
LAMESA 2SE       N/A     58  44  58 E2        29.99S
LEVELLAND 4S     N/A     54  39  56 N12       29.99R
LUBBOCK 3WNW     N/A     54  39  58 N8        30.00R
MORTON 1ENE      N/A     52  40  64 N10       30.00R
ODONNELL 1N      N/A     59  42  54 S5        29.99R
PLAINS 3N        N/A     58  36  43 NW7       29.98R
RALLS 1SE        N/A     53  39  58 N8        30.01R
REESE CENTER     N/A     53  39  58 N10       30.00R
SEAGRAVES 1SW    N/A     60  38  44 SW3       29.98R
SEMINOLE 2NNE    N/A     60  36  39 W5        29.98R
SLATON 2NE       N/A     55  40  58 N6        30.00R
SNYDER 3E        N/A     62  43  50 SW2       30.00R
SUNDOWN 8SW      N/A     55  41  58 N10       29.98R
TAHOKA 3NNE      N/A     59  40  49 NE1       29.98R
WOLFFORTH 6SSW   N/A     54  43  66 N10       29.99R
$$

TXZ031-032-036>038-042>044-170000-
TEXAS TECH WEST TEXAS MESONET/ROLLING PLAINS

CITY           SKY/WX    TMP DP  RH WIND       PRES   REMARKS
ASPERMONT 3NE    N/A     60  40  47 W3        30.00S
FLUVANNA 3WNW    N/A     58  42  55 W3        29.99R
GRAHAM 5SSW      N/A     58  44  60 S2        29.99R
GUTHRIE 10WSW    N/A     59  38  45 NW8       29.99R
HASKELL 1NW      N/A     59  40  48 W2        30.00R
JAYTON 1SSE      N/A     60  40  47 CALM      29.99R
KNOX CITY 3NW    N/A     61  39  44 SE1       30.00R
LK A HENRY 1NW   N/A     60  39  46 NW2       29.99S
NORTHFIELD 1S    N/A     54  38  53 W12       30.01R
PADUCAH 10SW     N/A     56  39  52 NW12      30.00R
POST 1NE         N/A     60  42  51 SW2       29.99R
RRING SPRGS 3N   N/A     54  40  59 NW12      30.00S
SEYMOUR 3NW      N/A     57  40  52 SW6       30.01R
SPUR 1W          N/A     58  40  52 NW8       29.99R
WEINERT 2NNE     N/A     58  40  49 W1        30.01R
WHITE RVR 6NE    N/A     56  39  53 NW10      29.99R
$$

TXZ052-054-060>062-072-078-127-140-154-169-170000-
TEXAS TECH WEST TEXAS MESONET/PERMIAN BASIN/
CONCHO VALLEY/BIG COUNTRY/EDWARDS PLATEAU

CITY           SKY/WX    TMP DP  RH WIND       PRES   REMARKS
COYANOSA 2N      N/A     67  34  29 W6        29.96R
JUNCTION 1SSW    N/A     66  47  50 E3        29.98S
MERTZON 3NNE     N/A     68  37  32 NW5       29.98S
SAN ANGELO 7NW   N/A     67  41  38 NW2       29.97F
STRLNG CT 4WSW   N/A     64  38  37 W7        29.99S
ST LAWRNCE 5SW   N/A     63  40  43 W1        29.99R
SWEETWATR 11SW   N/A     61  42  50 NW3       30.00S
WALL 1E          N/A     68  40  35 CALM      29.99R
$$

TXZ055-058-074-075-080-082-170000-
TEXAS TECH WEST TEXAS MESONET/FAR WEST/SOUTHWEST MOUNTAINS/TRANS PECOS

CITY           SKY/WX    TMP DP  RH WIND       PRES   REMARKS
PRSMN GAP BBNP   N/A     66  32  28 E8        29.94S
GUADLPE MTN NP   N/A     49  28  44 W12       30.01R
$$



USA.gov is the U.S. government's official web portal to all federal, state and local government web resources and services.